Year,Month,Day,Hour,Minute,Value (Times are PST for temperature in C)
2015,04,24,00,00,7.60
2015,04,24,00,01,7.60
2015,04,24,00,02,7.60
2015,04,24,00,03,7.60
2015,04,24,00,04,7.60
2015,04,24,00,05,7.60
2015,04,24,00,06,7.60
2015,04,24,00,07,7.60
2015,04,24,00,08,7.60
2015,04,24,00,09,7.60
2015,04,24,00,10,7.60
2015,04,24,00,11,7.60
2015,04,24,00,12,7.60
2015,04,24,00,13,7.60
2015,04,24,00,14,7.60
2015,04,24,00,15,7.50
2015,04,24,00,16,7.50
2015,04,24,00,17,7.60
2015,04,24,00,18,7.50
2015,04,24,00,19,7.50
2015,04,24,00,20,7.50
2015,04,24,00,21,7.50
2015,04,24,00,22,7.50
2015,04,24,00,23,7.50
2015,04,24,00,24,7.40
2015,04,24,00,25,7.40
2015,04,24,00,26,7.40
2015,04,24,00,27,7.40
2015,04,24,00,28,7.40
2015,04,24,00,29,7.40
2015,04,24,00,30,7.40
2015,04,24,00,31,7.40
2015,04,24,00,32,7.40
2015,04,24,00,33,7.40
2015,04,24,00,34,7.30
2015,04,24,00,35,7.30
2015,04,24,00,36,7.30
2015,04,24,00,37,7.30
2015,04,24,00,38,7.30
2015,04,24,00,39,7.20
2015,04,24,00,40,7.20
2015,04,24,00,41,7.20
2015,04,24,00,42,7.10
2015,04,24,00,43,7.10
2015,04,24,00,44,7.10
2015,04,24,00,45,7.10
2015,04,24,00,46,7.00
2015,04,24,00,47,7.00
2015,04,24,00,48,7.00
2015,04,24,00,49,7.00
2015,04,24,00,50,7.00
2015,04,24,00,51,6.90
2015,04,24,00,52,6.90
2015,04,24,00,53,6.90
2015,04,24,00,54,6.90
2015,04,24,00,55,6.90
2015,04,24,00,56,6.90
2015,04,24,00,57,7.00
2015,04,24,00,58,7.00
2015,04,24,00,59,7.00
2015,04,24,01,00,7.00
2015,04,24,01,01,7.00
2015,04,24,01,02,7.00
2015,04,24,01,03,7.00
2015,04,24,01,04,7.00
2015,04,24,01,05,7.00
2015,04,24,01,06,7.00
2015,04,24,01,07,7.00
2015,04,24,01,08,7.00
2015,04,24,01,09,7.00
2015,04,24,01,10,7.00
2015,04,24,01,11,7.00
2015,04,24,01,12,7.00
2015,04,24,01,13,6.90
2015,04,24,01,14,6.90
2015,04,24,01,15,6.90
2015,04,24,01,16,6.90
2015,04,24,01,17,6.90
2015,04,24,01,18,6.90
2015,04,24,01,19,6.90
2015,04,24,01,20,6.90
2015,04,24,01,21,6.90
2015,04,24,01,22,6.80
2015,04,24,01,23,6.80
2015,04,24,01,24,6.80
2015,04,24,01,25,6.80
2015,04,24,01,26,6.80
2015,04,24,01,27,6.80
2015,04,24,01,28,6.80
2015,04,24,01,29,6.80
2015,04,24,01,30,6.80
2015,04,24,01,31,6.80
2015,04,24,01,32,6.80
2015,04,24,01,33,6.80
2015,04,24,01,34,6.80
2015,04,24,01,35,6.80
2015,04,24,01,36,6.80
2015,04,24,01,37,6.80
2015,04,24,01,38,6.80
2015,04,24,01,39,6.80
2015,04,24,01,40,6.80
2015,04,24,01,41,6.80
2015,04,24,01,42,6.80
2015,04,24,01,43,6.80
2015,04,24,01,44,6.80
2015,04,24,01,45,6.80
2015,04,24,01,46,6.80
2015,04,24,01,47,6.80
2015,04,24,01,48,6.80
2015,04,24,01,49,6.80
2015,04,24,01,50,6.80
2015,04,24,01,51,6.80
2015,04,24,01,52,6.80
2015,04,24,01,53,6.80
2015,04,24,01,54,6.70
2015,04,24,01,55,6.70
2015,04,24,01,56,6.70
2015,04,24,01,57,6.70
2015,04,24,01,58,6.70
2015,04,24,01,59,6.70
2015,04,24,02,00,6.70
2015,04,24,02,01,6.70
2015,04,24,02,02,6.70
2015,04,24,02,03,6.70
2015,04,24,02,04,6.70
2015,04,24,02,05,6.70
2015,04,24,02,06,6.70
2015,04,24,02,07,6.70
2015,04,24,02,08,6.70
2015,04,24,02,09,6.60
2015,04,24,02,10,6.60
2015,04,24,02,11,6.60
2015,04,24,02,12,6.50
2015,04,24,02,13,6.50
2015,04,24,02,14,6.40
2015,04,24,02,15,6.40
2015,04,24,02,16,6.40
2015,04,24,02,17,6.30
2015,04,24,02,18,6.30
2015,04,24,02,19,6.30
2015,04,24,02,20,6.30
2015,04,24,02,21,6.30
2015,04,24,02,22,6.20
2015,04,24,02,23,6.20
2015,04,24,02,24,6.20
2015,04,24,02,25,6.20
2015,04,24,02,26,6.20
2015,04,24,02,27,6.20
2015,04,24,02,28,6.10
2015,04,24,02,29,6.10
2015,04,24,02,30,6.10
2015,04,24,02,31,6.10
2015,04,24,02,32,6.10
2015,04,24,02,33,6.00
2015,04,24,02,34,6.00
2015,04,24,02,35,6.00
2015,04,24,02,36,6.00
2015,04,24,02,37,6.00
2015,04,24,02,38,6.00
2015,04,24,02,39,5.90
2015,04,24,02,40,5.90
2015,04,24,02,41,5.90
2015,04,24,02,42,5.90
2015,04,24,02,43,5.80
2015,04,24,02,44,5.80
2015,04,24,02,45,5.80
2015,04,24,02,46,5.80
2015,04,24,02,47,5.80
2015,04,24,02,48,5.70
2015,04,24,02,49,5.70
2015,04,24,02,50,5.70
2015,04,24,02,51,5.70
2015,04,24,02,52,5.70
2015,04,24,02,53,5.70
2015,04,24,02,54,5.60
2015,04,24,02,55,5.60
2015,04,24,02,56,5.60
2015,04,24,02,57,5.60
2015,04,24,02,58,5.60
2015,04,24,02,59,5.50
2015,04,24,03,00,5.50
2015,04,24,03,01,5.50
2015,04,24,03,02,5.50
2015,04,24,03,03,5.50
2015,04,24,03,04,5.40
2015,04,24,03,05,5.40
2015,04,24,03,06,5.40
2015,04,24,03,07,5.40
2015,04,24,03,08,5.30
2015,04,24,03,09,5.30
2015,04,24,03,10,5.30
2015,04,24,03,11,5.30
2015,04,24,03,12,5.30
2015,04,24,03,13,5.30
2015,04,24,03,14,5.30
2015,04,24,03,15,5.30
2015,04,24,03,16,5.30
2015,04,24,03,17,5.30
2015,04,24,03,18,5.30
2015,04,24,03,19,5.30
2015,04,24,03,20,5.30
2015,04,24,03,21,5.30
2015,04,24,03,22,5.30
2015,04,24,03,23,5.30
2015,04,24,03,24,5.20
2015,04,24,03,25,5.20
2015,04,24,03,26,5.20
2015,04,24,03,27,5.20
2015,04,24,03,28,5.20
2015,04,24,03,29,5.20
2015,04,24,03,30,5.20
2015,04,24,03,31,5.20
2015,04,24,03,32,5.20
2015,04,24,03,33,5.20
2015,04,24,03,34,5.20
2015,04,24,03,35,5.20
2015,04,24,03,36,5.10
2015,04,24,03,37,5.10
2015,04,24,03,38,5.10
2015,04,24,03,39,5.10
2015,04,24,03,40,5.10
2015,04,24,03,41,5.10
2015,04,24,03,42,5.10
2015,04,24,03,43,5.10
2015,04,24,03,44,5.10
2015,04,24,03,45,5.10
2015,04,24,03,46,5.10
2015,04,24,03,47,5.10
2015,04,24,03,48,5.10
2015,04,24,03,49,5.10
2015,04,24,03,50,5.00
2015,04,24,03,51,5.10
2015,04,24,03,52,5.10
2015,04,24,03,53,5.10
2015,04,24,03,54,5.10
2015,04,24,03,55,5.10
2015,04,24,03,56,5.10
2015,04,24,03,57,5.10
2015,04,24,03,58,5.00
2015,04,24,03,59,5.00
2015,04,24,04,00,5.00
2015,04,24,04,01,5.00
2015,04,24,04,02,5.00
2015,04,24,04,03,5.00
2015,04,24,04,04,5.00
2015,04,24,04,05,5.00
2015,04,24,04,06,5.00
2015,04,24,04,07,5.00
2015,04,24,04,08,5.00
2015,04,24,04,09,5.00
2015,04,24,04,10,5.00
2015,04,24,04,11,5.00
2015,04,24,04,12,5.00
2015,04,24,04,13,5.00
2015,04,24,04,14,5.00
2015,04,24,04,15,5.00
2015,04,24,04,16,5.00
2015,04,24,04,17,5.00
2015,04,24,04,18,5.00
2015,04,24,04,19,5.00
2015,04,24,04,20,5.00
2015,04,24,04,21,5.00
2015,04,24,04,22,5.00
2015,04,24,04,23,5.00
2015,04,24,04,24,5.00
2015,04,24,04,25,5.00
2015,04,24,04,26,5.00
2015,04,24,04,27,4.90
2015,04,24,04,28,4.90
2015,04,24,04,29,4.90
2015,04,24,04,30,4.90
2015,04,24,04,31,4.90
2015,04,24,04,32,4.90
2015,04,24,04,33,4.90
2015,04,24,04,34,4.80
2015,04,24,04,35,4.80
2015,04,24,04,36,4.80
2015,04,24,04,37,4.80
2015,04,24,04,38,4.80
2015,04,24,04,39,4.80
2015,04,24,04,40,4.80
2015,04,24,04,41,4.80
2015,04,24,04,42,4.80
2015,04,24,04,43,4.80
2015,04,24,04,44,4.80
2015,04,24,04,45,4.70
2015,04,24,04,46,4.70
2015,04,24,04,47,4.70
2015,04,24,04,48,4.70
2015,04,24,04,49,4.70
2015,04,24,04,50,4.70
2015,04,24,04,51,4.70
2015,04,24,04,52,4.70
2015,04,24,04,53,4.60
2015,04,24,04,54,4.60
2015,04,24,04,55,4.60
2015,04,24,04,56,4.50
2015,04,24,04,57,4.50
2015,04,24,04,58,4.50
2015,04,24,04,59,4.40
2015,04,24,05,00,4.40
2015,04,24,05,01,4.40
2015,04,24,05,02,4.40
2015,04,24,05,03,4.40
2015,04,24,05,04,4.30
2015,04,24,05,05,4.30
2015,04,24,05,06,4.30
2015,04,24,05,07,4.30
2015,04,24,05,08,4.30
2015,04,24,05,09,4.30
2015,04,24,05,10,4.30
2015,04,24,05,11,4.30
2015,04,24,05,12,4.30
2015,04,24,05,13,4.30
2015,04,24,05,14,4.30
2015,04,24,05,15,4.30
2015,04,24,05,16,4.30
2015,04,24,05,17,4.30
2015,04,24,05,18,4.30
2015,04,24,05,19,4.20
2015,04,24,05,20,4.20
2015,04,24,05,21,4.20
2015,04,24,05,22,4.20
2015,04,24,05,23,4.20
2015,04,24,05,24,4.10
2015,04,24,05,25,4.10
2015,04,24,05,26,4.10
2015,04,24,05,27,4.10
2015,04,24,05,28,4.10
2015,04,24,05,29,4.00
2015,04,24,05,30,4.00
2015,04,24,05,31,4.00
2015,04,24,05,32,4.00
2015,04,24,05,33,4.00
2015,04,24,05,34,4.00
2015,04,24,05,35,4.00
2015,04,24,05,36,4.00
2015,04,24,05,37,3.90
2015,04,24,05,38,3.90
2015,04,24,05,39,3.90
2015,04,24,05,40,3.90
2015,04,24,05,41,3.80
2015,04,24,05,42,3.80
2015,04,24,05,43,3.80
2015,04,24,05,44,3.80
2015,04,24,05,45,3.80
2015,04,24,05,46,3.80
2015,04,24,05,47,3.80
2015,04,24,05,48,3.80
2015,04,24,05,49,3.70
2015,04,24,05,50,3.70
2015,04,24,05,51,3.80
2015,04,24,05,52,3.80
2015,04,24,05,53,3.80
2015,04,24,05,54,3.80
2015,04,24,05,55,3.80
2015,04,24,05,56,3.90
2015,04,24,05,57,3.90
2015,04,24,05,58,3.90
2015,04,24,05,59,3.90
2015,04,24,06,00,3.90
2015,04,24,06,01,3.90
2015,04,24,06,02,3.90
2015,04,24,06,03,3.80
2015,04,24,06,04,3.80
2015,04,24,06,05,3.80
2015,04,24,06,06,3.80
2015,04,24,06,07,3.80
2015,04,24,06,08,3.80
2015,04,24,06,09,3.80
2015,04,24,06,10,3.80
2015,04,24,06,11,3.80
2015,04,24,06,12,3.80
2015,04,24,06,13,3.90
2015,04,24,06,14,3.90
2015,04,24,06,15,3.90
2015,04,24,06,16,3.90
2015,04,24,06,17,3.90
2015,04,24,06,18,3.90
2015,04,24,06,19,3.90
2015,04,24,06,20,3.90
2015,04,24,06,21,3.90
2015,04,24,06,22,3.80
2015,04,24,06,23,3.80
2015,04,24,06,24,3.80
2015,04,24,06,25,3.80
2015,04,24,06,26,3.80
2015,04,24,06,27,3.80
2015,04,24,06,28,3.70
2015,04,24,06,29,3.70
2015,04,24,06,30,3.70
2015,04,24,06,31,3.70
2015,04,24,06,32,3.70
2015,04,24,06,33,3.70
2015,04,24,06,34,3.70
2015,04,24,06,35,3.70
2015,04,24,06,36,3.70
2015,04,24,06,37,3.70
2015,04,24,06,38,3.70
2015,04,24,06,39,3.70
2015,04,24,06,40,3.70
2015,04,24,06,41,3.80
2015,04,24,06,42,3.80
2015,04,24,06,43,3.80
2015,04,24,06,44,3.90
2015,04,24,06,45,3.90
2015,04,24,06,46,3.90
2015,04,24,06,47,3.90
2015,04,24,06,48,3.90
2015,04,24,06,49,3.90
2015,04,24,06,50,3.90
2015,04,24,06,51,3.90
2015,04,24,06,52,3.90
2015,04,24,06,53,3.90
2015,04,24,06,54,3.90
2015,04,24,06,55,3.90
2015,04,24,06,56,3.90
2015,04,24,06,57,3.90
2015,04,24,06,58,3.90
2015,04,24,06,59,4.00
2015,04,24,07,00,4.00
2015,04,24,07,01,4.10
2015,04,24,07,02,4.10
2015,04,24,07,03,4.20
2015,04,24,07,04,4.20
2015,04,24,07,05,4.20
2015,04,24,07,06,4.30
2015,04,24,07,07,4.30
2015,04,24,07,08,4.30
2015,04,24,07,09,4.40
2015,04,24,07,10,4.50
2015,04,24,07,11,4.50
2015,04,24,07,12,4.60
2015,04,24,07,13,4.70
2015,04,24,07,14,4.70
2015,04,24,07,15,4.70
2015,04,24,07,16,4.80
2015,04,24,07,17,4.80
2015,04,24,07,18,4.80
2015,04,24,07,19,4.80
2015,04,24,07,20,4.90
2015,04,24,07,21,4.90
2015,04,24,07,22,4.90
2015,04,24,07,23,5.00
2015,04,24,07,24,5.00
2015,04,24,07,25,5.00
2015,04,24,07,26,5.10
2015,04,24,07,27,5.10
2015,04,24,07,28,5.10
2015,04,24,07,29,5.10
2015,04,24,07,30,5.20
2015,04,24,07,31,5.20
2015,04,24,07,32,5.20
2015,04,24,07,33,5.30
2015,04,24,07,34,5.30
2015,04,24,07,35,5.40
2015,04,24,07,36,5.50
2015,04,24,07,37,5.50
2015,04,24,07,38,5.60
2015,04,24,07,39,5.70
2015,04,24,07,40,5.80
2015,04,24,07,41,5.80
2015,04,24,07,42,5.90
2015,04,24,07,43,5.90
2015,04,24,07,44,6.00
2015,04,24,07,45,6.00
2015,04,24,07,46,6.10
2015,04,24,07,47,6.10
2015,04,24,07,48,6.10
2015,04,24,07,49,6.10
2015,04,24,07,50,6.20
2015,04,24,07,51,6.20
2015,04,24,07,52,6.20
2015,04,24,07,53,6.30
2015,04,24,07,54,6.30
2015,04,24,07,55,6.40
2015,04,24,07,56,6.40
2015,04,24,07,57,6.50
2015,04,24,07,58,6.50
2015,04,24,07,59,6.60
2015,04,24,08,00,6.60
2015,04,24,08,01,6.60
2015,04,24,08,02,6.70
2015,04,24,08,03,6.70
2015,04,24,08,04,6.70
2015,04,24,08,05,6.70
2015,04,24,08,06,6.70
2015,04,24,08,07,6.80
2015,04,24,08,08,6.80
2015,04,24,08,09,6.90
2015,04,24,08,10,6.90
2015,04,24,08,11,7.00
2015,04,24,08,12,7.10
2015,04,24,08,13,7.10
2015,04,24,08,14,7.20
2015,04,24,08,15,7.30
2015,04,24,08,16,7.30
2015,04,24,08,17,7.40
2015,04,24,08,18,7.40
2015,04,24,08,19,7.40
2015,04,24,08,20,7.40
2015,04,24,08,21,7.40
2015,04,24,08,22,7.40
2015,04,24,08,23,7.40
2015,04,24,08,24,7.30
2015,04,24,08,25,7.30
2015,04,24,08,26,7.30
2015,04,24,08,27,7.30
2015,04,24,08,28,7.30
2015,04,24,08,29,7.30
2015,04,24,08,30,7.30
2015,04,24,08,31,7.30
2015,04,24,08,32,7.30
2015,04,24,08,33,7.30
2015,04,24,08,34,7.30
2015,04,24,08,35,7.30
2015,04,24,08,36,7.30
2015,04,24,08,37,7.30
2015,04,24,08,38,7.30
2015,04,24,08,39,7.30
2015,04,24,08,40,7.30
2015,04,24,08,41,7.30
2015,04,24,08,42,7.30
2015,04,24,08,43,7.40
2015,04,24,08,44,7.40
2015,04,24,08,45,7.40
2015,04,24,08,46,7.40
2015,04,24,08,47,7.40
2015,04,24,08,48,7.40
2015,04,24,08,49,7.40
2015,04,24,08,50,7.40
2015,04,24,08,51,7.40
2015,04,24,08,52,7.40
2015,04,24,08,53,7.40
2015,04,24,08,54,7.40
2015,04,24,08,55,7.50
2015,04,24,08,56,7.50
2015,04,24,08,57,7.50
2015,04,24,08,58,7.50
2015,04,24,08,59,7.60
2015,04,24,09,00,7.60
2015,04,24,09,01,7.70
2015,04,24,09,02,7.70
2015,04,24,09,03,7.80
2015,04,24,09,04,7.80
2015,04,24,09,05,7.90
2015,04,24,09,06,7.90
2015,04,24,09,07,7.90
2015,04,24,09,08,7.90
2015,04,24,09,09,7.90
2015,04,24,09,10,7.90
2015,04,24,09,11,8.00
2015,04,24,09,12,8.00
2015,04,24,09,13,8.00
2015,04,24,09,14,8.00
2015,04,24,09,15,8.00
2015,04,24,09,16,8.00
2015,04,24,09,17,8.10
2015,04,24,09,18,8.10
2015,04,24,09,19,8.10
2015,04,24,09,20,8.10
2015,04,24,09,21,8.00
2015,04,24,09,22,8.00
2015,04,24,09,23,8.00
2015,04,24,09,24,8.00
2015,04,24,09,25,8.00
2015,04,24,09,26,8.00
2015,04,24,09,27,8.00
2015,04,24,09,28,8.00
2015,04,24,09,29,8.00
2015,04,24,09,30,8.00
2015,04,24,09,31,8.00
2015,04,24,09,32,8.00
2015,04,24,09,33,8.00
2015,04,24,09,34,7.90
2015,04,24,09,35,7.90
2015,04,24,09,36,7.90
2015,04,24,09,37,7.90
2015,04,24,09,38,7.90
2015,04,24,09,39,7.90
2015,04,24,09,40,7.90
2015,04,24,09,41,7.90
2015,04,24,09,42,7.90
2015,04,24,09,43,7.90
2015,04,24,09,44,7.90
2015,04,24,09,45,7.90
2015,04,24,09,46,7.90
2015,04,24,09,47,7.90
2015,04,24,09,48,7.90
2015,04,24,09,49,7.90
2015,04,24,09,50,8.00
2015,04,24,09,51,8.00
2015,04,24,09,52,8.10
2015,04,24,09,53,8.10
2015,04,24,09,54,8.20
2015,04,24,09,55,8.20
2015,04,24,09,56,8.10
2015,04,24,09,57,8.10
2015,04,24,09,58,8.10
2015,04,24,09,59,8.10
2015,04,24,10,00,8.10
2015,04,24,10,01,8.20
2015,04,24,10,02,8.20
2015,04,24,10,03,8.20
2015,04,24,10,04,8.30
2015,04,24,10,05,8.30
2015,04,24,10,06,8.30
2015,04,24,10,07,8.40
2015,04,24,10,08,8.40
2015,04,24,10,09,8.50
2015,04,24,10,10,8.50
2015,04,24,10,11,8.50
2015,04,24,10,12,8.50
2015,04,24,10,13,8.50
2015,04,24,10,14,8.50
2015,04,24,10,15,8.60
2015,04,24,10,16,8.60
2015,04,24,10,17,8.60
2015,04,24,10,18,8.60
2015,04,24,10,19,8.60
2015,04,24,10,20,8.60
2015,04,24,10,21,8.70
2015,04,24,10,22,8.70
2015,04,24,10,23,8.70
2015,04,24,10,24,8.70
2015,04,24,10,25,8.70
2015,04,24,10,26,8.70
2015,04,24,10,27,8.70
2015,04,24,10,28,8.70
2015,04,24,10,29,8.60
2015,04,24,10,30,8.60
2015,04,24,10,31,8.60
2015,04,24,10,32,8.60
2015,04,24,10,33,8.50
2015,04,24,10,34,8.50
2015,04,24,10,35,8.50
2015,04,24,10,36,8.50
2015,04,24,10,37,8.50
2015,04,24,10,38,8.50
2015,04,24,10,39,8.40
2015,04,24,10,40,8.40
2015,04,24,10,41,8.40
2015,04,24,10,42,8.40
2015,04,24,10,43,8.50
2015,04,24,10,44,8.50
2015,04,24,10,45,8.50
2015,04,24,10,46,8.60
2015,04,24,10,47,8.70
2015,04,24,10,48,8.70
2015,04,24,10,49,8.80
2015,04,24,10,50,8.80
2015,04,24,10,51,8.80
2015,04,24,10,52,8.90
2015,04,24,10,53,8.90
2015,04,24,10,54,8.90
2015,04,24,10,55,9.00
2015,04,24,10,56,9.00
2015,04,24,10,57,9.00
2015,04,24,10,58,9.00
2015,04,24,10,59,9.10
2015,04,24,11,00,9.10
2015,04,24,11,01,9.20
2015,04,24,11,02,9.20
2015,04,24,11,03,9.30
2015,04,24,11,04,9.40
2015,04,24,11,05,9.40
2015,04,24,11,06,9.40
2015,04,24,11,07,9.50
2015,04,24,11,08,9.50
2015,04,24,11,09,9.50
2015,04,24,11,10,9.50
2015,04,24,11,11,9.50
2015,04,24,11,12,9.50
2015,04,24,11,13,9.40
2015,04,24,11,14,9.40
2015,04,24,11,15,9.40
2015,04,24,11,16,9.40
2015,04,24,11,17,9.40
2015,04,24,11,18,9.40
2015,04,24,11,19,9.40
2015,04,24,11,20,9.40
2015,04,24,11,21,9.40
2015,04,24,11,22,9.40
2015,04,24,11,23,9.40
2015,04,24,11,24,9.50
2015,04,24,11,25,9.50
2015,04,24,11,26,9.60
2015,04,24,11,27,9.70
2015,04,24,11,28,9.80
2015,04,24,11,29,9.90
2015,04,24,11,30,10.00
2015,04,24,11,31,10.00
2015,04,24,11,32,10.10
2015,04,24,11,33,10.10
2015,04,24,11,34,10.10
2015,04,24,11,35,10.20
2015,04,24,11,36,10.20
2015,04,24,11,37,10.30
2015,04,24,11,38,10.40
2015,04,24,11,39,10.50
2015,04,24,11,40,10.50
2015,04,24,11,41,10.60
2015,04,24,11,42,10.70
2015,04,24,11,43,10.70
2015,04,24,11,44,10.70
2015,04,24,11,45,10.70
2015,04,24,11,46,10.70
2015,04,24,11,47,10.60
2015,04,24,11,48,10.60
2015,04,24,11,49,10.70
2015,04,24,11,50,10.70
2015,04,24,11,51,10.70
2015,04,24,11,52,10.80
2015,04,24,11,53,10.80
2015,04,24,11,54,10.80
2015,04,24,11,55,10.80
2015,04,24,11,56,10.80
2015,04,24,11,57,10.80
2015,04,24,11,58,10.80
2015,04,24,11,59,10.90
2015,04,24,12,00,11.00
2015,04,24,12,01,11.10
2015,04,24,12,02,11.10
2015,04,24,12,03,11.10
2015,04,24,12,04,11.10
2015,04,24,12,05,11.10
2015,04,24,12,06,11.10
2015,04,24,12,07,11.00
2015,04,24,12,08,11.00
2015,04,24,12,09,11.00
2015,04,24,12,10,11.00
2015,04,24,12,11,10.90
2015,04,24,12,12,10.90
2015,04,24,12,13,10.80
2015,04,24,12,14,10.80
2015,04,24,12,15,10.80
2015,04,24,12,16,10.80
2015,04,24,12,17,10.80
2015,04,24,12,18,10.90
2015,04,24,12,19,10.90
2015,04,24,12,20,11.00
2015,04,24,12,21,11.10
2015,04,24,12,22,11.10
2015,04,24,12,23,11.10
2015,04,24,12,24,11.20
2015,04,24,12,25,11.20
2015,04,24,12,26,11.20
2015,04,24,12,27,11.10
2015,04,24,12,28,11.00
2015,04,24,12,29,10.90
2015,04,24,12,30,10.80
2015,04,24,12,31,10.70
2015,04,24,12,32,10.70
2015,04,24,12,33,10.80
2015,04,24,12,34,10.70
2015,04,24,12,35,10.60
2015,04,24,12,36,10.40
2015,04,24,12,37,10.30
2015,04,24,12,38,10.30
2015,04,24,12,39,10.20
2015,04,24,12,40,10.10
2015,04,24,12,41,10.10
2015,04,24,12,42,10.00
2015,04,24,12,43,9.90
2015,04,24,12,44,9.90
2015,04,24,12,45,9.80
2015,04,24,12,46,9.70
2015,04,24,12,47,9.40
2015,04,24,12,48,9.20
2015,04,24,12,49,9.10
2015,04,24,12,50,8.90
2015,04,24,12,51,8.90
2015,04,24,12,52,8.80
2015,04,24,12,53,8.80
2015,04,24,12,54,8.80
2015,04,24,12,55,8.90
2015,04,24,12,56,8.90
2015,04,24,12,57,9.00
2015,04,24,12,58,9.00
2015,04,24,12,59,9.00
2015,04,24,13,00,9.10
2015,04,24,13,01,9.10
2015,04,24,13,02,9.10
2015,04,24,13,03,9.20
2015,04,24,13,04,9.20
2015,04,24,13,05,9.20
2015,04,24,13,06,9.20
2015,04,24,13,07,9.30
2015,04,24,13,08,9.30
2015,04,24,13,09,9.30
2015,04,24,13,10,9.30
2015,04,24,13,11,9.40
2015,04,24,13,12,9.40
2015,04,24,13,13,9.40
2015,04,24,13,14,9.40
2015,04,24,13,15,9.50
2015,04,24,13,16,9.60
2015,04,24,13,17,9.60
2015,04,24,13,18,9.60
2015,04,24,13,19,9.70
2015,04,24,13,20,9.70
2015,04,24,13,21,9.80
2015,04,24,13,22,9.80
2015,04,24,13,23,9.90
2015,04,24,13,24,10.00
2015,04,24,13,25,10.20
2015,04,24,13,26,10.20
2015,04,24,13,27,10.20
2015,04,24,13,28,10.20
2015,04,24,13,29,10.30
2015,04,24,13,30,10.30
2015,04,24,13,31,10.30
2015,04,24,13,32,10.30
2015,04,24,13,33,10.20
2015,04,24,13,34,10.20
2015,04,24,13,35,10.10
2015,04,24,13,36,10.00
2015,04,24,13,37,9.90
2015,04,24,13,38,9.80
2015,04,24,13,39,9.70
2015,04,24,13,40,9.60
2015,04,24,13,41,9.50
2015,04,24,13,42,9.40
2015,04,24,13,43,9.30
2015,04,24,13,44,9.20
2015,04,24,13,45,9.00
2015,04,24,13,46,8.90
2015,04,24,13,47,8.70
2015,04,24,13,48,8.60
2015,04,24,13,49,8.50
2015,04,24,13,50,8.40
2015,04,24,13,51,8.30
2015,04,24,13,52,8.30
2015,04,24,13,53,8.20
2015,04,24,13,54,8.20
2015,04,24,13,55,8.20
2015,04,24,13,56,8.20
2015,04,24,13,57,8.10
2015,04,24,13,58,8.10
2015,04,24,13,59,8.10
2015,04,24,14,00,8.10
2015,04,24,14,01,8.10
2015,04,24,14,02,8.10
2015,04,24,14,03,8.00
2015,04,24,14,04,8.00
2015,04,24,14,05,8.00
2015,04,24,14,06,8.00
2015,04,24,14,07,8.00
2015,04,24,14,08,7.90
2015,04,24,14,09,7.90
2015,04,24,14,10,7.80
2015,04,24,14,11,7.80
2015,04,24,14,12,7.80
2015,04,24,14,13,7.70
2015,04,24,14,14,7.70
2015,04,24,14,15,7.70
2015,04,24,14,16,7.70
2015,04,24,14,17,7.70
2015,04,24,14,18,7.70
2015,04,24,14,19,7.70
2015,04,24,14,20,7.70
2015,04,24,14,21,7.70
2015,04,24,14,22,7.80
2015,04,24,14,23,7.80
2015,04,24,14,24,7.80
2015,04,24,14,25,7.90
2015,04,24,14,26,7.90
2015,04,24,14,27,8.00
2015,04,24,14,28,8.10
2015,04,24,14,29,8.10
2015,04,24,14,30,8.10
2015,04,24,14,31,8.20
2015,04,24,14,32,8.20
2015,04,24,14,33,8.10
2015,04,24,14,34,8.10
2015,04,24,14,35,8.10
2015,04,24,14,36,8.10
2015,04,24,14,37,8.20
2015,04,24,14,38,8.20
2015,04,24,14,39,8.20
2015,04,24,14,40,8.20
2015,04,24,14,41,8.30
2015,04,24,14,42,8.30
2015,04,24,14,43,8.40
2015,04,24,14,44,8.50
2015,04,24,14,45,8.60
2015,04,24,14,46,8.70
2015,04,24,14,47,8.80
2015,04,24,14,48,8.80
2015,04,24,14,49,8.90
2015,04,24,14,50,8.90
2015,04,24,14,51,9.00
2015,04,24,14,52,9.10
2015,04,24,14,53,9.10
2015,04,24,14,54,9.10
2015,04,24,14,55,9.10
2015,04,24,14,56,9.20
2015,04,24,14,57,9.20
2015,04,24,14,58,9.30
2015,04,24,14,59,9.30
2015,04,24,15,00,9.40
2015,04,24,15,01,9.40
2015,04,24,15,02,9.50
2015,04,24,15,03,9.60
2015,04,24,15,04,9.70
2015,04,24,15,05,9.70
2015,04,24,15,06,9.80
2015,04,24,15,07,9.90
2015,04,24,15,08,10.00
2015,04,24,15,09,10.00
2015,04,24,15,10,10.00
2015,04,24,15,11,9.90
2015,04,24,15,12,9.90
2015,04,24,15,13,9.90
2015,04,24,15,14,9.90
2015,04,24,15,15,9.90
2015,04,24,15,16,9.90
2015,04,24,15,17,9.90
2015,04,24,15,18,9.80
2015,04,24,15,19,9.70
2015,04,24,15,20,9.70
2015,04,24,15,21,9.60
2015,04,24,15,22,9.60
2015,04,24,15,23,9.60
2015,04,24,15,24,9.60
2015,04,24,15,25,9.50
2015,04,24,15,26,9.50
2015,04,24,15,27,9.40
2015,04,24,15,28,9.40
2015,04,24,15,29,9.30
2015,04,24,15,30,9.30
2015,04,24,15,31,9.30
2015,04,24,15,32,9.40
2015,04,24,15,33,9.50
2015,04,24,15,34,9.70
2015,04,24,15,35,9.80
2015,04,24,15,36,9.80
2015,04,24,15,37,9.80
2015,04,24,15,38,9.80
2015,04,24,15,39,9.80
2015,04,24,15,40,9.80
2015,04,24,15,41,9.90
2015,04,24,15,42,9.90
2015,04,24,15,43,9.90
2015,04,24,15,44,9.90
2015,04,24,15,45,9.90
2015,04,24,15,46,10.00
2015,04,24,15,47,10.10
2015,04,24,15,48,10.10
2015,04,24,15,49,10.10
2015,04,24,15,50,10.10
2015,04,24,15,51,10.10
2015,04,24,15,52,10.20
2015,04,24,15,53,10.20
2015,04,24,15,54,10.20
2015,04,24,15,55,10.20
2015,04,24,15,56,10.20
2015,04,24,15,57,10.20
2015,04,24,15,58,10.20
2015,04,24,15,59,10.20
2015,04,24,16,00,10.30
2015,04,24,16,01,10.40
2015,04,24,16,02,10.50
2015,04,24,16,03,10.50
2015,04,24,16,04,10.50
2015,04,24,16,05,10.50
2015,04,24,16,06,10.50
2015,04,24,16,07,10.50
2015,04,24,16,08,10.50
2015,04,24,16,09,10.50
2015,04,24,16,10,10.40
2015,04,24,16,11,10.40
2015,04,24,16,12,10.40
2015,04,24,16,13,10.40
2015,04,24,16,14,10.40
2015,04,24,16,15,10.30
2015,04,24,16,16,10.30
2015,04,24,16,17,10.30
2015,04,24,16,18,10.20
2015,04,24,16,19,10.20
2015,04,24,16,20,10.10
2015,04,24,16,21,10.00
2015,04,24,16,22,9.90
2015,04,24,16,23,9.80
2015,04,24,16,24,9.70
2015,04,24,16,25,9.60
2015,04,24,16,26,9.50
2015,04,24,16,27,9.40
2015,04,24,16,28,9.40
2015,04,24,16,29,9.30
2015,04,24,16,30,9.30
2015,04,24,16,31,9.30
2015,04,24,16,32,9.40
2015,04,24,16,33,9.40
2015,04,24,16,34,9.40
2015,04,24,16,35,9.50
2015,04,24,16,36,9.50
2015,04,24,16,37,9.40
2015,04,24,16,38,9.40
2015,04,24,16,39,9.50
2015,04,24,16,40,9.50
2015,04,24,16,41,9.60
2015,04,24,16,42,9.60
2015,04,24,16,43,9.60
2015,04,24,16,44,9.70
2015,04,24,16,45,9.80
2015,04,24,16,46,9.80
2015,04,24,16,47,9.80
2015,04,24,16,48,9.90
2015,04,24,16,49,9.90
2015,04,24,16,50,10.00
2015,04,24,16,51,10.00
2015,04,24,16,52,10.10
2015,04,24,16,53,10.20
2015,04,24,16,54,10.30
2015,04,24,16,55,10.30
2015,04,24,16,56,10.40
2015,04,24,16,57,10.40
2015,04,24,16,58,10.40
2015,04,24,16,59,10.40
2015,04,24,17,00,10.50
2015,04,24,17,01,10.50
2015,04,24,17,02,10.60
2015,04,24,17,03,10.60
2015,04,24,17,04,10.60
2015,04,24,17,05,10.60
2015,04,24,17,06,10.60
2015,04,24,17,07,10.70
2015,04,24,17,08,10.80
2015,04,24,17,09,10.80
2015,04,24,17,10,10.90
2015,04,24,17,11,10.90
2015,04,24,17,12,10.90
2015,04,24,17,13,10.80
2015,04,24,17,14,10.80
2015,04,24,17,15,10.80
2015,04,24,17,16,10.80
2015,04,24,17,17,10.80
2015,04,24,17,18,10.80
2015,04,24,17,19,10.70
2015,04,24,17,20,10.60
2015,04,24,17,21,10.60
2015,04,24,17,22,10.50
2015,04,24,17,23,10.50
2015,04,24,17,24,10.40
2015,04,24,17,25,10.30
2015,04,24,17,26,10.30
2015,04,24,17,27,10.30
2015,04,24,17,28,10.30
2015,04,24,17,29,10.40
2015,04,24,17,30,10.40
2015,04,24,17,31,10.50
2015,04,24,17,32,10.60
2015,04,24,17,33,10.60
2015,04,24,17,34,10.60
2015,04,24,17,35,10.60
2015,04,24,17,36,10.60
2015,04,24,17,37,10.60
2015,04,24,17,38,10.60
2015,04,24,17,39,10.70
2015,04,24,17,40,10.70
2015,04,24,17,41,10.70
2015,04,24,17,42,10.80
2015,04,24,17,43,10.80
2015,04,24,17,44,10.80
2015,04,24,17,45,10.90
2015,04,24,17,46,10.80
2015,04,24,17,47,10.80
2015,04,24,17,48,10.80
2015,04,24,17,49,10.80
2015,04,24,17,50,10.80
2015,04,24,17,51,10.80
2015,04,24,17,52,10.90
2015,04,24,17,53,10.90
2015,04,24,17,54,11.00
2015,04,24,17,55,11.10
2015,04,24,17,56,11.10
2015,04,24,17,57,11.10